SCP
0 0 0 0 0 0 0 0 0 0 0 0 0 0 0 0 0 0 0 0 0 0 0 0 0 0 0 0 0 0 0 0 0 0 0 0 0 0 0 0 0 0 0
0 0 0 0 1 1 0 0 0 0 0 0 0 0 0 0 0 0 0 0 0 0 0 0 0 0 0 0 0 0 0 0 0 0 0 0 0 0 0 0 0 0 0
0 0 0 1 1 1 1 0 0 0 0 0 0 0 0 0 0 0 0 0 0 0 0 0 0 0 0 0 0 0 0 0 0 0 0 0 0 0 0 0 0 0 0
0 0 0 1 1 1 1 1 0 0 0 0 0 0 0 0 0 0 0 0 0 0 0 0 0 0 0 0 0 0 0 0 0 0 0 0 0 0 0 0 0 0 0
0 0 0 1 1 1 1 1 0 0 0 0 0 0 0 0 0 0 0 0 0 0 0 0 0 0 0 0 0 0 0 0 0 0 0 0 0 0 0 0 0 0 0
0 0 0 1 1 1 1 1 0 0 0 0 0 0 0 0 0 0 0 0 0 0 0 0 0 0 0 0 0 0 0 0 0 0 0 0 0 0 0 0 0 0 0
0 0 0 1 1 1 1 1 1 0 0 0 0 0 0 0 0 0 0 0 0 0 0 0 0 0 0 0 0 0 0 0 0 0 0 0 0 0 0 0 0 0 0
0 0 0 1 1 1 1 1 1 0 0 0 0 0 0 0 0 0 0 0 0 0 0 0 0 0 0 0 0 0 0 0 0 0 0 0 0 0 0 0 0 0 0
0 0 0 0 0 0 0 1 1 0 0 0 0 0 0 0 0 0 0 0 0 0 0 0 0 0 0 0 0 0 0 0 0 0 0 0 0 0 0 0 0 0 0
0 0 0 0 0 0 0 0 0 0 0 0 0 0 0 0 0 0 0 0 0 0 0 0 0 0 0 0 0 0 0 0 0 0 0 0 0 0 0 0 0 0 0
0 0 0 0 0 0 0 0 0 0 0 0 0 0 0 0 0 0 0 0 0 0 0 0 0 0 0 0 0 0 0 0 0 0 0 0 0 0 0 0 0 0 0
0 0 0 0 0 0 0 0 0 0 0 0 0 0 0 0 0 0 0 0 0 0 0 0 0 0 0 0 0 0 0 0 0 0 0 0 0 0 0 0 0 0 0
0 0 0 0 0 0 0 0 0 0 0 0 0 0 0 0 0 0 0 0 0 0 0 0 0 0 0 0 0 0 0 0 0 0 0 0 0 0 0 0 0 0 0
0 0 0 0 0 0 0 0 0 0 0 0 0 0 0 0 0 0 0 0 0 0 0 0 0 0 0 0 0 0 0 0 0 0 0 0 0 0 0 0 0 0 0
0 0 0 0 0 0 0 0 0 0 0 0 0 0 0 0 0 0 0 0 0 0 0 0 0 0 0 0 0 0 0 0 0 0 0 0 0 0 0 0 0 0 0
0 0 0 0 0 0 0 0 0 0 0 0 0 0 0 0 0 0 0 0 0 0 0 0 0 0 0 0 0 0 0 0 0 0 0 0 0 0 0 0 0 0 0
0 0 0 0 0 0 0 0 0 0 0 0 0 0 0 0 0 0 0 0 0 0 0 0 0 0 0 0 0 0 0 0 0 0 0 0 0 0 0 0 0 0 0
0 0 0 0 0 0 0 0 0 0 0 0 0 0 0 0 0 0 0 0 0 0 0 0 0 0 0 0 0 0 0 0 0 0 0 0 0 0 0 0 0 0 0
0 0 0 0 0 0 0 0 0 0 0 0 0 0 0 0 0 0 0 0 0 0 0 0 0 0 0 0 0 0 0 0 0 0 0 0 0 0 0 0 0 0 0
0 0 0 0 0 0 0 0 0 0 0 0 0 0 0 0 0 0 0 0 0 0 0 0 0 0 0 0 0 0 0 0 0 0 0 0 0 0 0 0 0 0 0
0 0 0 0 0 0 0 0 0 0 0 0 0 0 0 0 0 0 0 0 0 0 0 0 0 0 0 0 0 0 0 0 0 0 0 0 0 0 0 0 0 0 0
0 0 0 0 0 0 0 0 0 0 0 0 0 0 0 0 0 0 0 0 0 0 0 0 0 0 0 0 0 0 0 0 0 0 0 0 0 0 0 0 0 0 0
0 0 0 0 0 0 0 0 0 0 0 0 0 0 0 0 0 0 0 0 0 0 0 0 0 0 0 0 0 0 0 0 0 0 0 0 0 0 0 0 0 0 0
0 0 0 0 0 0 0 0 0 0 0 0 0 0 0 0 0 0 0 0 0 0 0 0 0 0 0 0 0 0 0 0 0 0 0 0 0 0 0 0 0 0 0
0 0 0 0 0 0 0 0 0 0 0 0 0 0 0 0 0 0 0 0 0 0 0 0 0 0 0 0 0 0 0 0 0 0 0 0 0 0 0 0 0 0 0
0 0 0 0 0 0 0 0 0 0 0 0 0 0 0 0 0 0 0 0 0 0 0 0 0 0 0 0 0 0 0 0 0 0 0 0 0 0 0 0 0 0 0
Wind_Speed
5 7 13 14 15 15 15 14 14 14 14 14 14 14 15 14 14 14 14 14 14 14 14 15 15 15 16 16 16 16 15 15 15 15 14 13 14 15 15 15 13 10 16
9 9 13 13 14 15 15 14 14 13 13 13 14 14 14 14 14 14 13 13 14 14 14 14 14 15 15 15 15 15 15 15 14 13 12 10 11 14 15 14 13 10 15
11 10 11 13 14 14 14 14 14 13 13 13 14 14 13 13 13 13 13 13 13 14 14 14 14 14 14 13 13 14 14 14 13 11 9 5 7 13 14 14 14 14 14
11 9 10 13 14 14 14 14 14 13 13 12 12 13 13 13 13 13 12 12 13 13 13 13 13 13 12 12 12 12 12 12 11 9 5 4 5 12 13 14 13 14 14
9 8 10 13 14 14 14 14 13 13 12 12 12 12 12 12 12 13 12 12 12 12 12 12 12 11 11 11 11 11 11 11 10 8 5 5 4 11 13 13 13 13 13
8 7 10 13 14 13 13 13 13 13 12 12 12 12 12 12 12 12 12 12 11 11 12 11 11 10 10 10 10 10 10 10 8 5 4 4 4 11 13 13 12 12 13
8 7 9 12 13 13 13 13 13 12 12 12 12 12 12 12 12 12 12 12 11 11 11 11 10 10 9 9 9 10 10 9 6 4 4 4 5 11 12 12 13 13 13
9 8 8 11 11 11 11 12 12 12 11 11 11 12 11 11 12 12 12 11 11 11 11 10 10 9 8 8 9 9 8 7 7 5 4 3 7 11 12 12 12 12 12
8 7 6 7 8 9 10 10 11 11 10 10 11 10 10 10 11 11 11 11 11 11 10 10 9 8 8 8 8 8 8 7 5 3 4 3 7 11 11 11 11 12 11
7 7 6 6 6 5 6 8 9 10 9 10 10 9 9 9 9 9 9 9 10 10 10 9 8 7 7 7 8 8 7 6 4 3 2 3 8 11 11 11 11 10 10
7 5 6 6 5 5 5 6 7 8 8 8 7 9 7 4 5 5 6 8 9 9 9 9 7 7 6 6 6 7 5 3 3 2 2 6 9 10 10 10 10 10 9
8 6 6 6 6 5 4 4 3 4 4 4 4 5 4 4 3 5 6 7 8 8 8 8 7 5 4 2 3 5 3 3 2 2 2 7 9 9 9 9 9 8 8
8 7 6 6 6 5 4 4 2 2 3 3 4 4 4 3 3 3 2 3 4 5 3 4 4 2 2 2 2 2 3 2 2 1 3 7 8 9 9 8 8 7 7
8 7 6 6 6 5 4 3 3 3 2 3 3 4 4 3 3 3 2 3 2 2 3 2 2 3 3 3 3 3 3 2 1 1 2 6 7 8 8 8 7 7 6
7 7 6 6 6 5 5 3 4 3 3 3 3 3 4 4 4 3 3 3 3 2 3 3 3 3 3 3 2 3 3 2 2 2 2 5 6 6 7 7 7 6 5
8 7 6 6 6 6 5 4 4 3 3 3 3 3 4 4 4 3 3 3 3 3 3 3 4 3 2 2 2 2 3 2 2 2 2 2 4 5 6 6 6 5 5
8 7 7 7 6 6 5 5 4 3 3 3 3 3 4 4 4 4 3 3 2 3 3 3 3 3 3 2 2 2 2 2 2 2 2 2 2 3 4 5 5 4 4
7 7 7 7 7 6 5 5 4 4 3 3 3 3 4 4 5 4 3 3 2 3 3 3 3 3 3 2 2 1 1 1 2 2 2 2 1 1 2 3 3 3 3
7 8 7 6 7 6 6 4 4 4 3 3 3 3 3 4 5 4 3 3 3 3 2 3 3 3 3 3 2 1 1 1 1 2 2 2 2 2 1 2 2 2 2
6 7 7 6 6 6 5 4 3 3 3 2 3 3 4 4 4 4 3 3 4 3 2 3 3 3 3 3 3 2 2 1 1 1 1 1 1 2 2 2 1 1 2
5 5 6 6 6 6 4 4 4 3 2 2 2 3 4 4 4 4 3 4 3 3 4 4 3 4 3 3 3 2 2 2 2 1 1 1 1 1 2 2 1 1 1
6 6 6 6 6 6 5 4 3 3 2 2 2 3 3 4 4 4 4 4 4 3 4 4 4 3 2 2 3 3 1 2 2 2 1 1 1 1 1 1 1 1 1
5 6 6 6 6 6 6 4 4 3 2 2 2 2 2 3 4 4 4 4 4 4 4 4 4 4 3 1 2 3 3 3 1 1 1 1 0 1 0 1 1 1 1
4 4 5 6 5 5 6 6 7 5 4 3 3 2 3 3 3 4 4 4 4 4 4 4 3 3 4 3 1 0 1 3 3 1 1 1 1 1 1 0 0 1 1
3 3 4 5 5 5 6 7 7 4 3 2 2 3 2 2 3 3 4 4 4 4 4 4 4 3 3 3 3 2 1 1 2 3 1 1 1 1 1 0 0 0 0
2 2 3 4 4 5 6 6 6 6 5 5 4 3 2 1 2 3 3 4 4 4 4 4 4 4 3 3 2 2 2 2 2 2 2 1 1 1 1 1 0 0 0
Wind_Direction
162 164 150 144 141 139 137 132 129 125 124 121 120 118 116 115 114 113 113 113 111 108 104 100 97 96 96 95 92 90 89 86 84 80 78 80 84 84 82 78 75 72 78
153 157 147 143 140 140 138 133 130 127 125 124 123 122 121 120 118 116 115 113 112 110 107 104 101 99 98 96 94 93 92 90 86 80 72 74 82 87 86 83 81 81 80
143 148 144 141 138 138 138 135 133 131 128 127 127 127 126 124 122 119 117 114 112 111 110 107 104 103 100 98 96 95 92 91 86 77 70 66 82 89 89 87 85 84 82
140 142 142 140 138 137 137 137 136 135 133 131 129 129 128 127 126 124 120 117 114 112 111 110 109 106 102 99 98 97 94 91 85 78 68 59 77 91 92 91 89 86 84
136 138 141 140 139 137 138 140 140 139 138 135 132 131 131 131 129 126 123 120 116 114 114 113 112 109 105 101 99 97 93 91 83 75 68 62 70 91 92 91 88 86 86
132 134 141 139 139 137 138 140 141 141 141 140 138 136 136 135 132 127 125 125 122 120 119 119 118 113 106 103 101 99 94 91 82 76 73 70 75 93 92 91 90 88 87
133 134 140 137 139 139 138 140 141 143 143 143 143 142 140 138 135 131 128 128 127 126 125 125 123 116 109 104 102 99 93 90 87 81 77 75 88 96 93 94 92 90 87
136 136 140 138 137 137 139 140 143 143 143 144 144 143 142 140 138 137 134 132 130 132 131 130 127 122 114 108 102 97 94 96 97 93 85 83 97 100 97 94 93 92 89
133 135 138 139 138 136 136 141 144 144 144 144 143 141 141 139 139 140 139 138 136 135 134 134 131 125 116 109 99 94 95 93 94 95 101 93 104 105 102 98 94 91 91
131 134 137 135 134 135 139 138 140 140 143 142 138 135 134 136 139 139 141 140 139 138 135 135 134 127 118 108 98 95 95 89 90 92 98 112 113 109 105 101 98 94 92
138 138 138 135 135 135 141 141 136 136 137 137 135 134 130 130 132 135 139 142 142 141 140 139 135 129 118 106 102 101 94 89 98 92 102 117 117 112 108 105 102 99 96
156 155 147 142 142 141 143 133 134 133 135 134 136 136 135 137 139 137 136 141 143 144 144 144 138 128 111 97 94 97 96 97 94 104 118 122 122 117 115 113 110 105 100
162 159 156 152 149 147 140 141 132 127 131 134 137 139 138 133 132 130 130 136 137 138 136 140 131 125 117 114 102 104 111 103 98 107 125 130 128 126 123 120 118 114 109
159 163 157 156 153 150 144 147 139 136 139 141 143 141 140 139 141 145 145 143 141 138 139 134 134 131 127 126 122 118 119 113 111 111 125 132 132 132 130 127 125 121 118
162 164 161 156 156 152 145 151 142 148 149 148 144 145 143 145 149 149 151 150 149 143 144 146 140 136 131 127 126 130 129 131 122 116 119 127 128 132 135 133 130 132 128
169 168 163 161 158 151 151 151 148 154 150 145 147 150 149 146 147 148 147 150 155 156 153 152 146 141 137 125 121 127 128 131 131 131 132 137 138 135 136 139 135 130 132
171 166 165 164 155 153 154 156 151 154 147 149 152 152 152 150 150 148 146 148 158 153 145 136 130 125 127 116 109 114 128 138 135 137 138 134 145 143 139 142 137 134 132
163 163 167 164 155 154 153 154 152 152 149 155 152 152 153 155 151 147 146 151 149 138 138 139 134 128 125 125 121 109 115 130 139 142 136 137 138 137 142 138 138 137 133
166 164 164 158 159 157 151 149 148 148 148 153 149 149 153 153 152 149 150 152 145 134 136 144 134 133 131 129 127 104 85 112 143 137 134 142 141 132 131 131 129 131 135
162 160 162 159 159 153 145 136 133 134 142 145 147 152 149 149 148 145 146 148 142 132 127 132 132 124 132 132 111 82 50 40 92 124 156 143 138 139 129 114 116 118 126
156 156 159 159 161 154 153 153 151 159 155 153 156 157 151 146 147 146 145 144 144 144 148 142 129 129 125 123 104 75 27 23 45 56 113 118 111 123 116 117 115 106 109
165 166 166 166 164 163 165 163 151 143 148 156 152 151 151 147 152 153 151 153 151 143 140 140 131 132 138 141 130 120 81 358 354 13 45 116 133 116 117 120 117 128 125
163 172 175 172 164 164 154 135 118 104 97 103 146 166 163 157 155 151 156 155 155 151 155 157 153 148 160 176 146 142 154 193 245 344 360 17 62 87 136 146 138 146 139
177 176 172 167 160 163 156 154 153 156 163 179 175 173 166 161 158 158 159 161 161 157 157 165 164 158 154 167 179 127 140 145 151 161 336 353 14 24 4 9 143 145 127
168 161 163 158 156 157 161 165 165 159 161 147 148 150 160 163 164 165 165 163 165 164 164 163 158 157 163 165 164 149 119 83 109 140 187 288 6 334 327 319 81 143 149
129 128 138 151 155 160 164 167 171 166 157 151 161 166 171 170 170 170 169 167 168 168 171 169 166 165 171 161 157 148 149 155 168 154 171 189 221 301 344 2 356 303 33